[[{"header":{"parameterUnit":"m.s-1","parameterCategory":1,"la1":30.2991,"la2":30.254,"lo1":-89.0895,"lo2":-89.0444,"dy":0.0017,"dx":0.0017,"nx":28,"ny":28,"refTime":"2023-10-31T21:00:00:Z","depth":0,"parameterNumber":2,"parameterNumberName":"U-component_of_WINDS"},"data":[0,0,0,0,0,0,0,0,0,0,0,0,0,0,0,0,0,0,0,0,0,0,0,0,0,0,0,0,0,0,0,0,0,0,0,0,0,0,0,0,0,0,0,0,0,0,0,0,0,0,0,0,0,0,0,0,0,0,0.1067,0.1067,0,0.1007,0.1006,0.1005,0.1005,0.1006,0.1006,0.1007,0.0943,0.094,0.0938,0,0,0,0,0,0,0,0,0,0,0,0,0,0.1181,0.1179,0.1067,0.1067,0.1066,0.1007,0.1006,0.1005,0.1005,0.1006,0.1007,0.1007,0.0943,0.0941,0.0938,0,0,0,0,0,0,0,0,0,0,0,0,0,0.1127,0.1179,0.1068,0.1059,0.1057,0.1007,0.1006,0.1005,0.1005,0.1006,0.1007,0.1008,0.0944,0.0941,0.0937,0.0891,0,0,0.0926,0.0924,0,0,0,0,0,0,0,0,0.113,0.1123,0.1061,0.1059,0.1057,0.1015,0.1023,0.0967,0.1004,0.1024,0.1007,0.1009,0.0965,0.096,0.0946,0.0888,0.0885,0.0926,0.0923,0.0922,0.0921,0,0,0,0,0,0,0,0.1134,0.1126,0.1043,0.106,0.1058,0.1057,0.1051,0.1012,0.0989,0.1023,0.1023,0.1016,0.0965,0.095,0.0945,0.0884,0.0926,0.0923,0.092,0.0919,0.0786,0.0785,0,0,0,0,0,0,0.114,0.1129,0.1045,0.1042,0.1098,0.1054,0.1047,0.1027,0.0989,0.0985,0.1015,0.1016,0.0955,0.0949,0.0942,0.0886,0.0922,0.0918,0.0916,0.0787,0.0786,0.0784,0,0,0,0,0,0,0.1142,0.1132,0.1048,0.1085,0.1074,0.1051,0.1029,0.1025,0.101,0.0983,0.0979,0.1003,0.0956,0.0947,0.0904,0.0884,0.0917,0.0913,0.0789,0.0787,0.0785,0.0773,0,0,0,0,0,0,0.1146,0.1133,0.1116,0.1085,0.1072,0.1011,0.1027,0.1023,0.1004,0.1005,0.0972,0.0967,0.0956,0.091,0.0901,0.0879,0.0911,0.0791,0.0788,0.0786,0.0775,0.077,0.0767,0,0,0,0,0,0.115,0.1114,0.1115,0.1105,0.105,0.101,0.1002,0.0991,0.1003,0.0984,0.0967,0.0968,0.0888,0.0905,0.0895,0.0872,0.0792,0.0789,0.0786,0.0776,0.0771,0.0767,0,0,0,0,0,0,0.1142,0.111,0.111,0.1064,0.104,0.101,0.0986,0.0986,0.0957,0.0959,0.0946,0.0938,0.0895,0.088,0.09,0.0826,0.0841,0.0836,0.0837,0.0832,0.0828,0.0832,0.0908,0,0,0,0,0,0.1135,0.1106,0.1079,0.104,0.1028,0.101,0.0992,0.0985,0.0959,0.0949,0.0929,0.0903,0.0872,0.0851,0.0821,0.0773,0.0766,0.0752,0.0748,0.0745,0.074,0.0714,0.0708,0.0775,0.0775,0.0775,0,0,0.112,0.1099,0.1081,0.1038,0.1019,0.0988,0.1001,0.0968,0.0945,0.0943,0.0901,0.0886,0.0856,0.081,0.0789,0.0796,0.0721,0.0742,0.0739,0.0736,0.071,0.0704,0.0698,0.0773,0.0773,0.0773,0,0,0.1077,0.1058,0.1024,0.1005,0.0976,0.0964,0.0956,0.0926,0.0916,0.0874,0.0872,0.0845,0.0792,0.0771,0.0753,0.0704,0.0703,0.0694,0.0673,0.0647,0.0642,0.0637,0.0619,0.0613,0.069,0.069,0.069,0,0.1061,0.1016,0.1006,0.0973,0.0954,0.0954,0.0919,0.09,0.0862,0.0849,0.0858,0.0792,0.0772,0.0721,0.0709,0.0695,0.0685,0.0697,0.0644,0.0639,0.0634,0.0617,0.061,0.0689,0.0689,0.0689,0.0689,0,0.0998,0.0966,0.0942,0.0907,0.0886,0.0852,0.0837,0.0817,0.0813,0.08,0.0757,0.0734,0.0699,0.0687,0.0682,0.0635,0.064,0.0647,0.0661,0.0627,0.061,0.0604,0.0688,0.0688,0.0688,0.0688,0,0,0.0946,0.0908,0.0899,0.0883,0.0851,0.0826,0.0793,0.076,0.0742,0.0717,0.0688,0.0644,0.065,0.063,0.0623,0.0601,0.0563,0.061,0.0609,0.0601,0.051,0.0505,0.0497,0.0563,0.0562,0.0561,0.0512,0,0.0899,0.084,0.0831,0.0778,0.0749,0.0749,0.0719,0.0697,0.0684,0.0657,0.0643,0.0612,0.0622,0.061,0.0588,0.0572,0.0544,0.0576,0.0535,0.0534,0.0542,0.0488,0.0482,0.0437,0.0506,0.0504,0.0504,0,0.0835,0.0809,0.0754,0.0727,0.0715,0.0688,0.0658,0.0632,0.0607,0.06,0.0578,0.0575,0.0539,0.0557,0.0509,0.053,0.0514,0.0503,0.0501,0.0496,0.0516,0.048,0.0422,0.0415,0.0493,0.0494,0.0495,0,0.0802,0.0753,0.0714,0.07,0.0669,0.065,0.0636,0.0612,0.0593,0.0566,0.0554,0.0523,0.0506,0.0483,0.0471,0.0485,0.0423,0.044,0.0415,0.0415,0.0401,0.0401,0.0338,0.0392,0.0392,0.0392,0.0392,0,0.0749,0.0715,0.0699,0.0674,0.0636,0.0627,0.059,0.0576,0.0555,0.0528,0.0526,0.05,0.0487,0.0459,0.045,0.0411,0.0403,0.0396,0.0394,0.0395,0.0396,0.0383,0.0385,0.039,0.0391,0.0391,0.0391,0,0.0705,0.0693,0.065,0.0624,0.0617,0.059,0.0567,0.0543,0.0532,0.0498,0.0489,0.0471,0.0438,0.0425,0.0385,0.0379,0.0334,0.0334,0.0342,0.0341,0.0317,0.0319,0.0242,0.0231,0.0293,0.0293,0.0292,0,0.0671,0.0646,0.0617,0.0599,0.0585,0.0556,0.0537,0.0527,0.0508,0.0478,0.0457,0.0425,0.0399,0.0347,0.033,0.0299,0.0299,0.0274,0.0294,0.0297,0.0297,0.0298,0.0296,0.0269,0.0269,0.0268,0.0268,0,0.0613,0.0609,0.0582,0.0553,0.0531,0.0507,0.0484,0.047,0.0456,0.0434,0.0402,0.0382,0.0341,0.0309,0.0278,0.0263,0.0263,0.0262,0.0255,0.0255,0.0261,0.0257,0.0331,0.0263,0.0264,0.0264,0.0264,0.0265,0.0572,0.055,0.0526,0.0497,0.0479,0.0458,0.0434,0.0421,0.0394,0.0361,0.0357,0.0322,0.0298,0.0256,0.024,0.0212,0.0218,0.0208,0.0205,0.0202,0.02,0.0267,0.0207,0.0207,0.0207,0.0207,0.0207,0,0.0513,0.0499,0.0472,0.044,0.0417,0.0421,0.0396,0.0376,0.0345,0.0324,0.0298,0.0261,0.023,0.0211,0.0181,0.0162,0.0161,0.0154,0.0155,0.0151,0.0197,0.0206,0.0155,0.0155,0.0155,0.0155,0.0155,0.0155,0.048,0.0441,0.0434,0.0387,0.0372,0.0339,0.0324,0.0305,0.0287,0.0246,0.0221,0.0209,0.0189,0.0157,0.0129,0.0124,0.0112,0.0105,0.01,0.0143,0.0148,0.0153,0.0161,0.0102,0.0102,0.0057,0.0056,0.0056]},{"header":{"parameterUnit":"m.s-1","parameterCategory":1,"la1":30.2991,"la2":30.254,"lo1":-89.0895,"lo2":-89.0444,"dy":0.0017,"dx":0.0017,"nx":28,"ny":28,"refTime":"2023-10-31T21:00:00:Z","depth":0,"parameterNumber":3,"parameterNumberName":"V-component_of_WINDS"},"data":[0,0,0,0,0,0,0,0,0,0,0,0,0,0,0,0,0,0,0,0,0,0,0,0,0,0,0,0,0,0,0,0,0,0,0,0,0,0,0,0,0,0,0,0,0,0,0,0,0,0,0,0,0,0,0,0,0,0,-8.6265,-8.6266,0,-8.6397,-8.6399,-8.64,-8.6324,-8.632,-8.6317,-8.6313,-8.6441,-8.6448,-8.6455,0,0,0,0,0,0,0,0,0,0,0,0,0,-8.5939,-8.5945,-8.6264,-8.6266,-8.6268,-8.6397,-8.6399,-8.6401,-8.6325,-8.632,-8.6316,-8.6311,-8.6439,-8.6447,-8.6456,0,0,0,0,0,0,0,0,0,0,0,0,0,-8.6076,-8.5947,-8.6264,-8.6246,-8.6245,-8.6397,-8.6399,-8.6401,-8.6326,-8.632,-8.6314,-8.6309,-8.6436,-8.6446,-8.6457,-8.6631,0,0,-8.6488,-8.6493,0,0,0,0,0,0,0,0,-8.6069,-8.6088,-8.6247,-8.6247,-8.6247,-8.6339,-8.6331,-8.6478,-8.6327,-8.6295,-8.6313,-8.6307,-8.6411,-8.6423,-8.646,-8.6637,-8.6643,-8.6489,-8.6495,-8.65,-8.6503,0,0,0,0,0,0,0,-8.6059,-8.6082,-8.6317,-8.6249,-8.6249,-8.6228,-8.6242,-8.6358,-8.6382,-8.6297,-8.6292,-8.6309,-8.641,-8.645,-8.6462,-8.6645,-8.6489,-8.6498,-8.6504,-8.6508,-8.6972,-8.6978,0,0,0,0,0,0,-8.6052,-8.6075,-8.6312,-8.6321,-8.6143,-8.6239,-8.6254,-8.6315,-8.6381,-8.6386,-8.6314,-8.6305,-8.6435,-8.6451,-8.6467,-8.6676,-8.65,-8.6509,-8.6515,-8.6966,-8.6974,-8.698,0,0,0,0,0,0,-8.6045,-8.6074,-8.6307,-8.6197,-8.6225,-8.6251,-8.6319,-8.632,-8.636,-8.6394,-8.6397,-8.6351,-8.6432,-8.6452,-8.6592,-8.6679,-8.6514,-8.6523,-8.6959,-8.6968,-8.6977,-8.7096,0,0,0,0,0,0,-8.6036,-8.6072,-8.614,-8.6199,-8.6231,-8.6432,-8.6325,-8.6327,-8.6379,-8.6369,-8.6429,-8.6434,-8.6429,-8.6577,-8.6602,-8.6691,-8.6531,-8.6951,-8.6963,-8.6974,-8.7085,-8.7108,-8.7129,0,0,0,0,0,-8.6025,-8.6167,-8.6144,-8.6173,-8.6317,-8.6437,-8.6456,-8.6449,-8.6387,-8.6454,-8.6476,-8.6432,-8.6666,-8.6592,-8.6619,-8.6713,-8.6946,-8.696,-8.6973,-8.7075,-8.7104,-8.7128,0,0,0,0,0,0,-8.6114,-8.6174,-8.6149,-8.6315,-8.6372,-8.6424,-8.651,-8.648,-8.6554,-8.6542,-8.6528,-8.6542,-8.6688,-8.6714,-8.663,-8.6885,-8.6796,-8.6816,-8.6863,-8.6891,-8.6913,-8.6903,-8.654,0,0,0,0,0,-8.6154,-8.6249,-8.6295,-8.6436,-8.6467,-8.6484,-8.6536,-8.6527,-8.6584,-8.6607,-8.6638,-8.6694,-8.678,-8.6837,-8.6918,-8.7088,-8.71,-8.7166,-8.7188,-8.7206,-8.7223,-8.7315,-8.7345,-8.7026,-8.7026,-8.7025,0,0,-8.6235,-8.628,-8.634,-8.6456,-8.6499,-8.6596,-8.6504,-8.661,-8.6682,-8.6622,-8.6757,-8.6782,-8.6843,-8.6999,-8.7069,-8.7025,-8.7314,-8.7223,-8.7238,-8.7245,-8.7333,-8.7363,-8.739,-8.7035,-8.7033,-8.7032,0,0,-8.6434,-8.6478,-8.6601,-8.6647,-8.6715,-8.6725,-8.6755,-8.6813,-8.6828,-8.6964,-8.6921,-8.7004,-8.7153,-8.7199,-8.7241,-8.7459,-8.7421,-8.7485,-8.7601,-8.7691,-8.7716,-8.7738,-8.7816,-8.7844,-8.7503,-8.7503,-8.7503,0,-8.6526,-8.6673,-8.6667,-8.6778,-8.6829,-8.6783,-8.6907,-8.6951,-8.704,-8.7076,-8.7026,-8.7213,-8.725,-8.7417,-8.747,-8.7506,-8.7538,-8.7478,-8.7713,-8.7736,-8.7756,-8.783,-8.7859,-8.751,-8.7509,-8.7509,-8.7508,0,-8.6783,-8.6886,-8.6977,-8.7069,-8.713,-8.7247,-8.7256,-8.7319,-8.7305,-8.732,-8.7458,-8.7502,-8.7592,-8.763,-8.7616,-8.7795,-8.7766,-8.7715,-8.7624,-8.7794,-8.7864,-8.7892,-8.7521,-8.7518,-8.7516,-8.7514,0,0,-8.7041,-8.713,-8.7163,-8.7204,-8.7277,-8.7355,-8.7468,-8.7559,-8.7613,-8.7676,-8.7771,-8.7899,-8.7853,-8.7901,-8.7891,-8.7971,-8.8141,-8.791,-8.7911,-8.7952,-8.8341,-8.8379,-8.8412,-8.8116,-8.8122,-8.8126,-8.8336,0,-8.7245,-8.7447,-8.7445,-8.7632,-8.7726,-8.7684,-8.7783,-8.7837,-8.7855,-8.7935,-8.7953,-8.8045,-8.7977,-8.8006,-8.8083,-8.8104,-8.8219,-8.8089,-8.8202,-8.8207,-8.8189,-8.8448,-8.8488,-8.8684,-8.8363,-8.8367,-8.8371,0,-8.7509,-8.7585,-8.7782,-8.7842,-8.7881,-8.7971,-8.8054,-8.8133,-8.8192,-8.8199,-8.8255,-8.8233,-8.8347,-8.8254,-8.841,-8.8322,-8.8368,-8.8386,-8.8393,-8.8403,-8.8299,-8.8465,-8.8746,-8.8776,-8.8413,-8.841,-8.8407,0,-8.7678,-8.7829,-8.7967,-8.8003,-8.8076,-8.814,-8.8173,-8.8228,-8.8283,-8.8354,-8.839,-8.8473,-8.8518,-8.8582,-8.8583,-8.8515,-8.8741,-8.8647,-8.8748,-8.8749,-8.8797,-8.8794,-8.909,-8.8828,-8.8827,-8.8827,-8.8826,0,-8.7906,-8.8028,-8.8044,-8.8129,-8.8264,-8.826,-8.8393,-8.8419,-8.8469,-8.8556,-8.8523,-8.8606,-8.8602,-8.8684,-8.8685,-8.8815,-8.8835,-8.8843,-8.8841,-8.8846,-8.8845,-8.8876,-8.8862,-8.8834,-8.8833,-8.8831,-8.883,0,-8.8117,-8.8133,-8.8281,-8.8339,-8.8356,-8.8453,-8.8501,-8.8581,-8.8596,-8.8707,-8.8733,-8.8756,-8.8852,-8.886,-8.897,-8.897,-8.9127,-8.9111,-8.9108,-8.9105,-8.9206,-8.9197,-8.9532,-8.9576,-8.9285,-8.9287,-8.929,0,-8.8261,-8.8355,-8.8424,-8.8482,-8.852,-8.8613,-8.8669,-8.8668,-8.8728,-8.8805,-8.8875,-8.8969,-8.9043,-8.9198,-8.9223,-8.9308,-8.9293,-8.9405,-8.9305,-8.9307,-8.9295,-8.929,-8.9299,-8.9424,-8.9427,-8.943,-8.9432,0,-8.8516,-8.852,-8.8605,-8.8693,-8.8763,-8.8831,-8.8895,-8.8943,-8.895,-8.9018,-8.9118,-8.9177,-8.9291,-8.9384,-8.9466,-8.9497,-8.9466,-8.9463,-8.9491,-8.9497,-8.9492,-8.9496,-8.9161,-8.9455,-8.9453,-8.9451,-8.945,-8.9449,-8.8698,-8.878,-8.8842,-8.8938,-8.8987,-8.9048,-8.9126,-8.9152,-8.9236,-8.9331,-8.9325,-8.9435,-8.9492,-8.96,-8.9638,-8.9722,-8.9684,-8.9724,-8.9735,-8.9745,-8.9755,-8.9479,-8.9737,-8.9736,-8.9736,-8.9735,-8.9735,0,-8.8952,-8.899,-8.9078,-8.9171,-8.9246,-8.9213,-8.9282,-8.9346,-8.9444,-8.9502,-8.9577,-8.9691,-8.9782,-8.9815,-8.9902,-8.9964,-8.9951,-8.9987,-8.9982,-8.999,-8.9784,-8.9752,-8.9995,-8.9995,-8.9995,-8.9995,-8.9995,-8.9995,-8.9092,-8.9229,-8.9241,-8.9401,-8.9437,-8.9548,-8.959,-8.9646,-8.9692,-8.9822,-8.9898,-8.992,-8.9967,-9.0058,-9.0139,-9.0146,-9.018,-9.0222,-9.0223,-9.003,-9.0004,-8.9979,-8.9948,-9.0229,-9.0229,-9.0421,-9.0423,-9.0424]}]]